Location: Unspecified
(35.7250°N, 0.0000°E)
Time: 22:19:02
(UTC+00:00)

Explorer 7 - Pass Details

Date: 26 June 2019
Orbit: 485 x 680 km, 50.3° (Epoch: 13 October)

Event Time Altitude Azimuth Distance (km) Brightness Sun altitude
Rises 05:35:52 0° 200° (SSW) 2,602 9.9 8.3°
Reaches altitude 10° 05:38:15 10° 187° (S) 1,749 9.1 8.7°
Maximum altitude 05:41:34 26° 130° (SE) 1,096 8.8 9.4°
Drops below altitude 10° 05:45:04 10° 74° (ENE) 1,851 12.6 10.0°
Sets 05:47:40 0° 61° (ENE) 2,792 12.6 10.5°
